This is the latest recevied weather packets stored in our database for station/object F4ELU-13. If no packets are shown the sender has not sent any weather packets the latest 10 day(s).
| Time | Temp. | Humidity | Pressure | Rain* | Wind** | Luminosity | Snow |
|---|---|---|---|---|---|---|---|
| 1777899603 | 16.11° C | 83% | 1012.2 hPa | 0 mm | - | - | - |
| 1777899243 | 16.11° C | 83% | 1012.2 hPa | 0 mm | - | - | - |
| 1777898703 | 15.56° C | 83% | 1012.2 hPa | 0 mm | - | - | - |
| 1777898163 | 16.11° C | 84% | 1012.2 hPa | 0 mm | - | - | - |
| 1777897623 | 16.11° C | 83% | 1012.4 hPa | 0 mm | - | - | - |
| 1777897083 | 16.11° C | 80% | 1012.4 hPa | 0 mm | - | - | - |
| 1777896543 | 16.11° C | 82% | 1012.5 hPa | 0 mm | - | - | - |
| 1777896003 | 16.11° C | 81% | 1012.5 hPa | 0 mm | - | - | - |
| 1777895644 | 16.11° C | 82% | 1012.5 hPa | 0 mm | - | - | - |
| 1777895103 | 16.11° C | 81% | 1012.6 hPa | 0 mm | - | - | - |
| 1777894563 | 16.11° C | 81% | 1012.6 hPa | 0 mm | - | - | - |
| 1777894023 | 16.11° C | 81% | 1012.6 hPa | 0 mm | - | - | - |
| 1777893483 | 15.56° C | 86% | 1012.7 hPa | 0 mm | - | - | - |
| 1777892943 | 15.56° C | 84% | 1012.7 hPa | 0 mm | - | - | - |
| 1777892403 | 15.56° C | 83% | 1012.6 hPa | 0 mm | - | - | - |
| 1777892043 | 16.11° C | 81% | 1012.7 hPa | 0 mm | - | - | - |
| 1777891503 | 16.11° C | 81% | 1012.7 hPa | 0 mm | - | - | - |
| 1777890963 | 15.56° C | 83% | 1012.6 hPa | 0 mm | - | - | - |
| 1777890423 | 16.11° C | 82% | 1012.8 hPa | 0 mm | - | - | - |
| 1777889883 | 15.56° C | 80% | 1012.7 hPa | 0 mm | - | - | - |
| 1777889343 | 16.11° C | 88% | 1012.7 hPa | 0 mm | - | - | - |
| 1777888803 | 15.56° C | 88% | 1012.8 hPa | 0 mm | - | - | - |
| 1777888443 | 15.56° C | 90% | 1012.8 hPa | 0 mm | - | - | - |
| 1777887903 | 15.56° C | 88% | 1012.8 hPa | 0 mm | - | - | - |
| 1777887363 | 15° C | 89% | 1012.8 hPa | 0 mm | - | - | - |
* Rain latest hour (hover to see other rain measurements)
** Current wind speed in m/s (hover to see current wind gust speed)